{"data":{"norad_id":63712,"epoch":"2026-05-24T22:21:51.159168Z","epoch_age_seconds":77117,"freshness":"FRESH","line1":"1 63712U 25087R   26144.93184212  .00021908  00000+0  71539-3 0  9995","line2":"2 63712  53.1570 225.3467 0001370  88.6227 271.4931 15.31712490 60876","mean_motion":15.3171249,"eccentricity":0.000137,"inclination_deg":53.157,"raan_deg":225.3467,"arg_perigee_deg":88.6227,"mean_anomaly_deg":271.4931,"bstar":0.00071539,"rev_number":6087,"period_min":94.012421351999,"perigee_km":469.76447239098,"apogee_km":471.64105448617,"semimajor_km":6848.8397634386,"source":"CELESTRAK","updated_at":"2026-05-25T13:38:20.099571Z"}}